Time,TemperatureF,DewpointF,PressureIn,WindDirection,WindDirectionDegrees,WindSpeedMPH,WindSpeedGustMPH,Humidity,HourlyPrecipIn,Conditions,Clouds,dailyrainin,SoftwareType,DateUTC
2013-07-23 00:03:00,83.0,72.0,29.83,SSE,166,7.0,13.0,70,0.00,,,0.00,weatherlink.com 1.10,2013-07-23 05:03:00,
2013-07-23 00:18:00,82.6,72.0,29.83,South,182,7.0,17.0,71,0.00,,,0.00,weatherlink.com 1.10,2013-07-23 05:18:00,
2013-07-23 00:33:00,82.2,73.0,29.83,SSE,165,13.0,14.0,73,0.00,,,0.00,weatherlink.com 1.10,2013-07-23 05:33:00,
2013-07-23 00:48:00,81.9,73.0,29.83,South,184,11.0,15.0,74,0.00,,,0.00,weatherlink.com 1.10,2013-07-23 05:48:00,
2013-07-23 01:03:00,81.7,73.0,29.83,South,176,9.0,14.0,75,0.00,,,0.00,weatherlink.com 1.10,2013-07-23 06:03:00,
2013-07-23 01:18:00,81.4,73.0,29.83,South,186,12.0,13.0,76,0.00,,,0.00,weatherlink.com 1.10,2013-07-23 06:18:00,
2013-07-23 01:33:00,81.2,73.0,29.83,South,179,5.0,12.0,76,0.00,,,0.00,weatherlink.com 1.10,2013-07-23 06:33:00,
2013-07-23 01:48:00,80.9,73.0,29.84,South,174,5.0,10.0,77,0.00,,,0.00,weatherlink.com 1.10,2013-07-23 06:48:00,
2013-07-23 02:03:00,80.8,73.0,29.84,South,176,2.0,7.0,77,0.00,,,0.00,weatherlink.com 1.10,2013-07-23 07:03:00,
2013-07-23 02:19:00,80.9,73.0,29.83,SSE,165,3.0,13.0,78,0.00,,,0.00,weatherlink.com 1.10,2013-07-23 07:19:00,
2013-07-23 02:34:00,80.7,73.0,29.82,South,173,5.0,11.0,78,0.00,,,0.00,weatherlink.com 1.10,2013-07-23 07:34:00,
2013-07-23 02:49:00,80.8,73.0,29.83,SSW,205,7.0,12.0,78,0.00,,,0.00,weatherlink.com 1.10,2013-07-23 07:49:00,
2013-07-23 03:04:00,80.7,73.0,29.82,South,188,4.0,9.0,78,0.00,,,0.00,weatherlink.com 1.10,2013-07-23 08:04:00,
2013-07-23 03:19:00,80.4,73.0,29.82,South,180,8.0,13.0,78,0.00,,,0.00,weatherlink.com 1.10,2013-07-23 08:19:00,
2013-07-23 03:34:00,80.3,73.0,29.82,South,179,5.0,10.0,78,0.00,,,0.00,weatherlink.com 1.10,2013-07-23 08:34:00,
2013-07-23 03:49:00,80.2,73.0,29.83,South,178,2.0,6.0,79,0.00,,,0.00,weatherlink.com 1.10,2013-07-23 08:49:00,
2013-07-23 04:04:00,80.2,73.0,29.82,SSW,194,5.0,7.0,79,0.00,,,0.00,weatherlink.com 1.10,2013-07-23 09:04:00,
2013-07-23 04:19:00,80.3,73.0,29.83,South,191,5.0,16.0,77,0.00,,,0.00,weatherlink.com 1.10,2013-07-23 09:19:00,
2013-07-23 04:34:00,79.9,73.0,29.84,SSW,211,7.0,8.0,78,0.00,,,0.00,weatherlink.com 1.10,2013-07-23 09:34:00,
2013-07-23 04:49:00,79.6,72.0,29.84,SSW,196,8.0,10.0,78,0.00,,,0.00,weatherlink.com 1.10,2013-07-23 09:49:00,
2013-07-23 05:04:00,79.3,72.0,29.84,SSW,194,4.0,8.0,78,0.00,,,0.00,weatherlink.com 1.10,2013-07-23 10:04:00,
2013-07-23 05:19:00,79.2,72.0,29.84,SSW,192,0.0,5.0,79,0.00,,,0.00,weatherlink.com 1.10,2013-07-23 10:19:00,
2013-07-23 05:34:00,79.1,72.0,29.84,SSW,192,4.0,5.0,79,0.00,,,0.00,weatherlink.com 1.10,2013-07-23 10:34:00,
2013-07-23 05:49:00,79.3,72.0,29.84,South,190,5.0,7.0,78,0.00,,,0.00,weatherlink.com 1.10,2013-07-23 10:49:00,
2013-07-23 06:04:00,79.3,72.0,29.84,South,190,7.0,8.0,78,0.00,,,0.00,weatherlink.com 1.10,2013-07-23 11:04:00,
2013-07-23 06:19:00,79.4,72.0,29.85,South,174,7.0,8.0,78,0.00,,,0.00,weatherlink.com 1.10,2013-07-23 11:19:00,
2013-07-23 06:34:00,79.4,72.0,29.85,SSW,205,4.0,10.0,78,0.00,,,0.00,weatherlink.com 1.10,2013-07-23 11:34:00,
2013-07-23 06:49:00,79.4,72.0,29.86,SSW,197,3.0,7.0,79,0.00,,,0.00,weatherlink.com 1.10,2013-07-23 11:49:00,
2013-07-23 07:04:00,79.2,72.0,29.86,South,190,3.0,7.0,79,0.00,,,0.00,weatherlink.com 1.10,2013-07-23 12:04:00,
2013-07-23 07:19:00,79.1,72.0,29.85,SSW,199,3.0,8.0,80,0.00,,,0.00,weatherlink.com 1.10,2013-07-23 12:19:00,
2013-07-23 07:34:00,78.9,73.0,29.86,South,191,4.0,9.0,81,0.00,,,0.00,weatherlink.com 1.10,2013-07-23 12:34:00,
2013-07-23 07:49:00,79.1,72.0,29.86,South,172,4.0,10.0,80,0.00,,,0.00,weatherlink.com 1.10,2013-07-23 12:49:00,
2013-07-23 08:04:00,79.3,73.0,29.86,South,181,4.0,8.0,80,0.00,,,0.00,weatherlink.com 1.10,2013-07-23 13:04:00,
2013-07-23 08:19:00,79.7,73.0,29.85,South,190,4.0,10.0,79,0.00,,,0.00,weatherlink.com 1.10,2013-07-23 13:19:00,
2013-07-23 08:34:00,80.1,73.0,29.85,South,188,7.0,12.0,78,0.00,,,0.00,weatherlink.com 1.10,2013-07-23 13:34:00,
2013-07-23 08:49:00,80.5,73.0,29.86,South,188,8.0,10.0,77,0.00,,,0.00,weatherlink.com 1.10,2013-07-23 13:49:00,
2013-07-23 09:04:00,80.9,73.0,29.86,South,183,7.0,10.0,77,0.00,,,0.00,weatherlink.com 1.10,2013-07-23 14:04:00,
2013-07-23 09:19:00,81.0,72.0,29.86,SSW,197,5.0,13.0,75,0.00,,,0.00,weatherlink.com 1.10,2013-07-23 14:19:00,
2013-07-23 09:34:00,80.9,72.0,29.87,South,182,9.0,15.0,75,0.00,,,0.00,weatherlink.com 1.10,2013-07-23 14:34:00,
2013-07-23 09:49:00,81.2,72.0,29.87,SW,232,6.0,14.0,74,0.00,,,0.00,weatherlink.com 1.10,2013-07-23 14:49:00,
2013-07-23 10:04:00,81.7,73.0,29.87,South,188,13.0,14.0,74,0.00,,,0.00,weatherlink.com 1.10,2013-07-23 15:04:00,
2013-07-23 10:20:00,82.3,72.0,29.87,South,191,5.0,12.0,72,0.00,,,0.00,weatherlink.com 1.10,2013-07-23 15:20:00,
2013-07-23 10:35:00,82.1,72.0,29.87,South,180,5.0,12.0,72,0.00,,,0.00,weatherlink.com 1.10,2013-07-23 15:35:00,
2013-07-23 10:50:00,82.6,72.0,29.87,SSW,205,7.0,10.0,71,0.00,,,0.00,weatherlink.com 1.10,2013-07-23 15:50:00,
2013-07-23 11:05:00,84.5,73.0,29.87,SW,227,6.0,12.0,68,0.00,,,0.00,weatherlink.com 1.10,2013-07-23 16:05:00,
2013-07-23 11:20:00,85.2,72.0,29.87,SSW,205,6.0,16.0,65,0.00,,,0.00,weatherlink.com 1.10,2013-07-23 16:20:00,
2013-07-23 11:35:00,85.2,72.0,29.86,South,186,7.0,15.0,64,0.00,,,0.00,weatherlink.com 1.10,2013-07-23 16:35:00,
2013-07-23 11:50:00,86.5,72.0,29.86,South,177,12.0,16.0,62,0.00,,,0.00,weatherlink.com 1.10,2013-07-23 16:50:00,
2013-07-23 12:05:00,87.0,72.0,29.86,South,185,6.0,11.0,61,0.00,,,0.00,weatherlink.com 1.10,2013-07-23 17:05:00,
2013-07-23 12:19:00,87.9,71.0,29.86,SSE,168,10.0,12.0,58,0.00,,,0.00,weatherlink.com 1.10,2013-07-23 17:19:00,
2013-07-23 12:35:00,88.5,71.0,29.86,SE,142,8.0,13.0,57,0.00,,,0.00,weatherlink.com 1.10,2013-07-23 17:35:00,
2013-07-23 13:05:00,91.1,71.0,29.85,SSW,205,7.0,11.0,52,0.00,,,0.00,weatherlink.com 1.10,2013-07-23 18:05:00,
2013-07-23 13:20:00,91.7,69.0,29.84,SSE,155,5.0,14.0,48,0.00,,,0.00,weatherlink.com 1.10,2013-07-23 18:20:00,
2013-07-23 13:35:00,92.9,70.0,29.83,SSE,164,4.0,11.0,47,0.00,,,0.00,weatherlink.com 1.10,2013-07-23 18:35:00,
2013-07-23 13:50:00,93.5,69.0,29.83,SW,221,5.0,12.0,45,0.00,,,0.00,weatherlink.com 1.10,2013-07-23 18:50:00,
2013-07-23 14:05:00,93.3,68.0,29.82,SSE,158,5.0,17.0,43,0.00,,,0.00,weatherlink.com 1.10,2013-07-23 19:05:00,
2013-07-23 14:20:00,94.5,67.0,29.82,South,178,10.0,16.0,41,0.00,,,0.00,weatherlink.com 1.10,2013-07-23 19:20:00,
2013-07-23 14:51:00,94.9,67.0,29.81,South,186,6.0,13.0,40,0.00,,,0.00,weatherlink.com 1.10,2013-07-23 19:51:00,
2013-07-23 15:06:00,95.5,66.0,29.81,SSW,195,12.0,16.0,38,0.00,,,0.00,weatherlink.com 1.10,2013-07-23 20:06:00,
2013-07-23 15:21:00,95.6,65.0,29.80,SSW,200,7.0,16.0,37,0.00,,,0.00,weatherlink.com 1.10,2013-07-23 20:21:00,
2013-07-23 15:36:00,96.4,65.0,29.80,South,171,9.0,13.0,36,0.00,,,0.00,weatherlink.com 1.10,2013-07-23 20:36:00,
2013-07-23 15:51:00,96.3,63.0,29.79,SSW,201,10.0,16.0,33,0.00,,,0.00,weatherlink.com 1.10,2013-07-23 20:51:00,
2013-07-23 16:21:00,97.4,63.0,29.78,SSE,165,10.0,13.0,32,0.00,,,0.00,weatherlink.com 1.10,2013-07-23 21:21:00,
2013-07-23 16:50:00,97.3,62.0,29.77,SSW,210,6.0,13.0,31,0.00,,,0.00,weatherlink.com 1.10,2013-07-23 21:50:00,
2013-07-23 17:06:00,97.5,61.0,29.77,South,179,6.0,17.0,30,0.00,,,0.00,weatherlink.com 1.10,2013-07-23 22:06:00,
2013-07-23 17:21:00,97.6,61.0,29.76,SSW,201,6.0,13.0,30,0.00,,,0.00,weatherlink.com 1.10,2013-07-23 22:21:00,
2013-07-23 17:36:00,97.6,62.0,29.76,South,185,9.0,17.0,31,0.00,,,0.00,weatherlink.com 1.10,2013-07-23 22:36:00,
2013-07-23 17:51:00,97.6,61.0,29.76,SSW,197,10.0,13.0,30,0.00,,,0.00,weatherlink.com 1.10,2013-07-23 22:51:00,
2013-07-23 18:06:00,97.0,62.0,29.75,South,171,7.0,12.0,31,0.00,,,0.00,weatherlink.com 1.10,2013-07-23 23:06:00,
2013-07-23 18:21:00,97.1,62.0,29.75,South,188,6.0,12.0,31,0.00,,,0.00,weatherlink.com 1.10,2013-07-23 23:21:00,
2013-07-23 18:36:00,96.7,62.0,29.75,SSW,200,4.0,13.0,32,0.00,,,0.00,weatherlink.com 1.10,2013-07-23 23:36:00,
2013-07-23 18:51:00,96.2,62.0,29.75,SSW,198,7.0,16.0,32,0.00,,,0.00,weatherlink.com 1.10,2013-07-23 23:51:00,
2013-07-23 19:06:00,95.6,62.0,29.75,South,181,8.0,15.0,33,0.00,,,0.00,weatherlink.com 1.10,2013-07-24 00:06:00,
2013-07-23 19:21:00,95.1,62.0,29.75,South,190,11.0,13.0,33,0.00,,,0.00,weatherlink.com 1.10,2013-07-24 00:21:00,
2013-07-23 19:36:00,94.5,61.0,29.75,South,179,5.0,14.0,33,0.00,,,0.00,weatherlink.com 1.10,2013-07-24 00:36:00,
2013-07-23 19:51:00,93.8,61.0,29.75,South,184,8.0,13.0,34,0.00,,,0.00,weatherlink.com 1.10,2013-07-24 00:51:00,
2013-07-23 20:06:00,93.1,62.0,29.74,South,182,8.0,11.0,35,0.00,,,0.00,weatherlink.com 1.10,2013-07-24 01:06:00,
2013-07-23 20:21:00,92.4,63.0,29.74,South,177,8.0,10.0,37,0.00,,,0.00,weatherlink.com 1.10,2013-07-24 01:21:00,
2013-07-23 20:36:00,91.6,63.0,29.74,SSW,200,3.0,7.0,38,0.00,,,0.00,weatherlink.com 1.10,2013-07-24 01:36:00,
2013-07-23 21:06:00,89.5,63.0,29.74,SSW,201,1.0,3.0,41,0.00,,,0.00,weatherlink.com 1.10,2013-07-24 02:06:00,
2013-07-23 21:21:00,88.3,63.0,29.75,SSW,201,1.0,2.0,43,0.00,,,0.00,weatherlink.com 1.10,2013-07-24 02:21:00,
2013-07-23 21:36:00,87.3,63.0,29.75,SSW,201,0.0,1.0,45,0.00,,,0.00,weatherlink.com 1.10,2013-07-24 02:36:00,
2013-07-23 21:51:00,86.3,64.0,29.75,SSW,201,0.0,1.0,48,0.00,,,0.00,weatherlink.com 1.10,2013-07-24 02:51:00,
2013-07-23 22:06:00,85.3,65.0,29.76,SSW,201,0.0,1.0,50,0.00,,,0.00,weatherlink.com 1.10,2013-07-24 03:06:00,
2013-07-23 22:21:00,85.4,65.0,29.76,SSW,201,2.0,5.0,50,0.00,,,0.00,weatherlink.com 1.10,2013-07-24 03:21:00,
2013-07-23 22:51:00,84.7,65.0,29.77,SSW,201,0.0,0.0,52,0.00,,,0.00,weatherlink.com 1.10,2013-07-24 03:51:00,
2013-07-23 23:06:00,83.5,66.0,29.77,SSW,201,1.0,1.0,55,0.00,,,0.00,weatherlink.com 1.10,2013-07-24 04:06:00,
2013-07-23 23:21:00,82.8,65.0,29.77,SSW,201,2.0,3.0,56,0.00,,,0.00,weatherlink.com 1.10,2013-07-24 04:21:00,
2013-07-23 23:36:00,82.7,65.0,29.77,SSW,201,0.0,4.0,56,0.00,,,0.00,weatherlink.com 1.10,2013-07-24 04:36:00,
2013-07-23 23:51:00,82.1,65.0,29.78,SSW,201,0.0,2.0,56,0.00,,,0.00,weatherlink.com 1.10,2013-07-24 04:51:00,